Torna al catalogo

EUTE 2-F2

AttivoComunicazioniGEO
NORAD 21056·PAYLOAD·🇪🇺 EU

Lanciato Jan 15, 1991 da Guiana Space Centre

Loading…

TLE

AggiornatoSource: Space-Track

Epoca: Sep 12, 2026, 21:07 UTC

1 21056U 91003B   26255.88016993  .00000031  00000-0  00000-0 0  9995
2 21056  14.9165   0.9491 0005187 194.5343 167.6293  0.98939627117090

Traccia EUTE 2-F2 in tempo reale con AllMySat

Download on the App Store